Location: Remedello Sotto
(45.2500°N, 10.3667°E)
Time: 13:00:56
(UTC+00:00)

Daily predictions for brighter satellites

Satellite Brightness Start Highest point End
(mag) Time Altitude Azimuth Time Altitude Azimuth Time Altitude Azimuth
SL-16 R/B 2.6 16:48:04 10° S 16:53:25 45° ESE 16:58:48 10° NE
Gblst 52 Del rocket 4.3 16:47:53 10° SW 16:53:38 74° SSE 16:59:07 10° ENE
SL-08 R/B 3.4 16:48:46 10° NNE 16:53:43 68° ESE 16:58:38 10° S
CORIOLIS 4.4 16:50:09 10° SSE 16:55:34 80° WSW 17:01:00 10° NNW
Meteor 2-1 Rocket 4.4 16:50:38 10° N 16:56:18 55° ENE 17:01:48 10° SSE
Cosmos 2228 3.2 16:53:03 10° N 16:57:09 47° ENE 17:01:13 10° SSE
Cosmos 540 Rocket 4.4 16:53:09 10° N 16:57:27 26° ENE 17:01:42 10° ESE
CZ-4B R/B 2.9 16:53:58 10° SSE 16:57:57 55° ENE 17:01:46 10° N
Cosmos 1606 Rocket 4.4 16:54:20 10° NNE 16:58:04 28° ENE 17:01:48 10° SE
AQUARIUS 4.4 16:54:13 10° S 16:58:42 79° WSW 17:03:12 10° NNW
COSMOS 2455 3.8 16:55:08 10° WSW 17:00:54 46° NW 17:06:43 10° NNE
Cosmos 1980 Rocket 3.4 17:00:04 10° SW 17:05:25 42° WNW 17:10:51 10° NNE
Cosmos 1340 Rocket 2.9 17:06:25 10° SSW 17:10:17 77° WNW 17:14:13 10° N
Radarsat Rocket 4.1 17:07:06 10° SSE 17:13:07 84° ENE 17:19:51 10° NNW
COSMO-SKYMED 1 2.7 17:10:11 10° NNE 17:14:27 53° E 17:18:42 10° S
USA 281 4.4 17:08:46 10° NNE 17:14:49 40° NW 17:20:51 10° WSW
Cosmos 2263 Rocket 3.6 17:13:21 10° NW 17:18:34 43° WSW 17:23:46 10° S
Cosmos 676 Rocket 4.2 17:14:44 10° S 17:19:50 51° ESE 17:24:56 10° NNE
Cosmos 407 Rocket 4.0 17:15:06 10° SSW 17:20:12 63° WNW 17:25:18 10° NNE
Cosmos 2237 4.3 17:15:31 10° S 17:21:07 60° ESE 17:26:46 10° NNE
BREEZE-M DEB (TANK) 2.6 17:18:10 10° W 17:21:12 81° N 17:27:08 12° E
CZ-4 R/B 4.4 17:17:48 10° SSE 17:21:51 60° ENE 17:25:55 10° N
ATLAS CENTAUR R/B 3.2 17:17:54 10° WSW 17:22:05 31° NW 17:26:07 10° NNE
Genesis I 4.4 17:19:40 10° S 17:22:54 24° ESE 17:25:15 15° ENE
Cosmos 1869 4.2 17:26:23 10° NNE 17:29:45 27° ENE 17:33:06 10° SE
Cosmos 1726 Rocket 3.8 17:26:11 10° N 17:30:20 45° ENE 17:34:28 10° SSE
ISS -2.5 17:30:58 10° WNW 17:34:10 41° SW 17:37:22 10° SE
DMSP B5D2-2 4.4 17:29:49 10° N 17:35:05 69° WNW 17:40:18 10° SSW
BREEZE-M DEB (TANK) 4.4 17:18:46 10° SW 17:37:53 55° SSE 17:41:41 18° E
SL-08 ROCKET BODY 4.4 17:33:41 10° N 17:39:35 86° W 17:45:25 10° S
Cosmos 1190 Rocket 4.4 17:34:50 10° SSW 17:40:06 68° WNW 17:45:24 10° NNE
PSLV R/B 3.8 17:38:15 10° SSE 17:41:47 48° ENE 17:45:22 10° N
Cosmos 1633 2.6 17:39:10 10° SSE 17:42:23 46° E 17:45:37 10° NNE
Cosmos 1461 2.9 17:39:15 10° SSW 17:43:26 68° ESE 17:47:00 15° NE
Okean O Rocket 2.4 17:39:59 10° SE 17:43:48 30° ENE 17:47:39 10° N
Cosmos 1408 3.9 17:41:04 10° SSW 17:44:15 38° WNW 17:47:29 10° N
Cosmos 1844 Rocket 2.6 17:43:41 10° NNW 17:49:17 74° ENE 17:54:50 10° SSE
CZ-4B DEB 4.3 17:47:31 10° SSE 17:52:58 80° WSW 17:58:28 10° NNW
Meteor 1-11 4.3 17:47:28 10° S 17:53:17 85° W 17:59:07 10° N
Lacrosse 5 rocket 1.6 17:51:34 10° NW 17:54:59 39° NNE 17:55:52 33° ENE
CZ-4B R/B 3.2 17:50:08 10° SSE 17:55:22 59° ENE 18:00:43 10° N
Cosmos 1553 Rocket 3.9 17:55:00 10° S 18:01:00 67° E 18:07:07 10° NNE
CZ-4 R/B 1.5 18:00:23 10° SSE 18:04:22 49° ENE 18:08:18 10° N
Cosmos 1844 3.7 17:59:28 10° NNW 18:05:19 84° ENE 18:11:05 10° SSE
SL-08 R/B 4.4 17:59:10 10° N 18:05:26 75° E 18:11:44 10° SSE
Cosmos 1892 4.2 18:02:38 10° SW 18:06:07 37° WNW 18:09:38 10° N
Cosmos 2058 Rocket 3.0 18:03:29 10° N 18:07:52 65° E 18:12:16 10° SSE
Cosmos 468 Rocket 4.2 18:02:48 10° NNW 18:07:57 70° WSW 18:13:02 10° S
DMSP B5D1-3 4.5 18:03:43 10° NNE 18:08:47 62° ESE 18:13:51 10° S
Cosmos 44 Rocket 3.7 18:05:22 10° S 18:09:41 39° ESE 18:10:25 36° E
CZ-4C R/B 4.4 18:06:27 10° N 18:10:05 42° WNW 18:13:32 10° SW
Cosmos 2360 Rocket 2.1 18:04:49 10° SSW 18:10:27 86° ESE 18:15:52 12° NNE
Cosmos 2219 Rocket 2.6 18:05:26 10° S 18:10:34 40° ESE 18:12:21 31° ENE
YAOGAN 1 2.5 18:06:51 10° SSE 18:11:10 86° WSW 18:15:30 10° NNW
Cosmos 1825 3.2 18:12:29 10° SSW 18:16:02 46° WNW 18:19:38 10° N
RESURS DK-1 2.3 18:13:40 10° NNW 18:17:47 84° WSW 18:20:31 21° SSE
Atlas Centaur 2 4.4 18:11:44 10° SW 18:17:55 24° SSE 18:21:46 17° SE
Cosmos 2333 Rocket 2.1 18:13:06 10° SSW 18:18:42 67° ESE 18:22:21 22° NE
IGS 5A 3.9 18:20:50 42° NE 18:20:50 42° NE 18:24:03 10° N
Cosmos 2278 Rocket 3.6 18:16:15 10° N 18:19:41 20° NE 18:19:41 20° NE
MOS 1-B 4.4 18:15:29 10° SSE 18:21:16 82° WSW 18:27:07 10° NNW
Cosmos 2322 Rocket 2.8 18:17:18 10° SW 18:22:47 54° WNW 18:28:18 10° NNE
Cosmos 1814 Rocket 4.4 18:21:07 10° N 18:26:08 41° ENE 18:26:08 41° ENE
Cosmos 1850 Rocket 3.8 18:24:13 10° SSW 18:29:23 79° ESE 18:32:17 27° NNE
USA 81 4.1 18:24:57 10° SSE 18:30:04 54° E 18:35:12 10° NNE
BlueWalker 3 3.5 18:30:03 10° NW 18:33:03 26° N 18:33:03 26° N
ATLAS 2AS CENTAUR R/B 3.7 18:26:56 10° NW 18:33:27 45° WSW 18:39:38 10° S
SL-4 R/B 2.9 18:30:22 10° NW 18:33:04 32° N 18:33:04 32° N
Lacrosse 5 2.6 18:28:51 10° WSW 18:33:46 48° NNW 18:35:50 31° NNE
COSMOS 2428 3.5 18:28:43 10° S 18:32:20 32° SE 18:32:20 32° SE
Feng Yun 1-1 Rocket 4.1 18:30:27 10° SSE 18:36:01 84° ENE 18:41:31 10° NNW
S3M 3.9 18:29:50 10° S 18:36:13 76° E 18:42:35 10° NNE
Cosmos 1741 Rocket 3.9 18:31:56 10° SSW 18:37:15 87° ESE 18:40:08 28° NNE
SL-16 R/B 3.8 18:32:38 10° WSW 18:37:40 32° NW 18:42:44 10° N
Cosmos 841 Rocket 3.5 18:32:38 10° NNW 18:37:56 81° WSW 18:42:08 16° SSE
Cosmos 540 Rocket 4.5 18:34:20 10° NNW 18:39:15 46° WSW 18:44:07 10° S
Cosmos 1340 3.2 18:35:52 10° NNW 18:39:27 54° W 18:41:59 18° S
Cosmos 2333 4.1 18:34:18 10° SSW 18:39:54 88° WNW 18:42:55 29° NNE
CSL-04 Debris 4.1 18:39:41 55° ESE 18:40:23 60° ENE 18:45:42 10° N
CSL-04 Rocket 3.7 18:47:08 58° NE 18:47:08 58° NE 18:52:01 10° N
Spot 1 4.3 18:51:48 58° NW 18:52:10 62° WNW 18:56:10 10° SSW
Cosmos 2315 Rocket 3.9 18:49:20 10° S 18:55:35 65° E 19:01:53 10° NNE
Cosmos 2322 3.5 18:54:44 10° SSW 19:00:25 80° ESE 19:00:25 80° ESE
Cosmos 1943 Rocket 4.3 18:56:51 10° N 18:57:56 13° NNE 18:57:56 13° NNE
Okean O Rocket 3.5 19:16:16 10° SSW 19:20:05 29° W 19:23:57 10° NW
Lacrosse 5 rocket 4.1 19:30:33 10° WNW 19:31:18 15° WNW 19:31:18 15° WNW
CZ-4 R/B 4.3 19:37:03 10° SW 19:39:30 15° W 19:41:56 10° NW
Cosmos 2219 Rocket 3.6 19:49:30 10° WSW 19:54:09 34° WNW 19:54:09 34° WNW
Cosmos 2360 Rocket 4.5 19:51:15 10° W 19:55:14 19° NW 19:57:41 15° NNW
Cosmos 2333 Rocket 4.2 19:59:00 10° W 20:03:29 24° NW 20:04:26 23° NNW
Cosmos 2278 Rocket 4.1 19:59:33 10° NNW 20:01:32 23° NNW 20:01:32 23° NNW
Atlas Centaur 2 4.5 19:59:36 10° SW 20:04:15 25° SSW 20:04:15 25° SSW
